• In Czech Republic
  • List of Countries
  • For 7 days
  • Water Temperature
  • Satellite Maps
  • Weather Map
  • Weather Widgets
  • user-avatar
    Login

    Hourly Weather Arvada

    Today, 20 February, Tuesday

    Time Temperature Precipitation Wind Pressure Humidity
    00:00 -17°C° 0.2 mm 3 mps 612 mmHg 93%
    01:00 -17°C° 0.2 mm 3 mps 612 mmHg 92%
    02:00 -17°C° 0.2 mm 2 mps 613 mmHg 90%
    03:00 -17°C° 0 mm 2 mps 613 mmHg 91%
    04:00 -18°C° 0 mm 2 mps 614 mmHg 92%
    05:00 -19°C° 0 mm 2 mps 614 mmHg 92%
    06:00 -18°C° 0 mm 2 mps 615 mmHg 90%
    07:00 -18°C° 0 mm 2 mps 616 mmHg 88%
    08:00 -17°C° 0 mm 2 mps 616 mmHg 86%
    09:00 -15°C° 0 mm 2 mps 617 mmHg 80%
    10:00 -13°C° 0 mm 2 mps 617 mmHg 75%
    11:00 -12°C° 0 mm 3 mps 618 mmHg 69%
    12:00 -10°C° 0 mm 3 mps 618 mmHg 68%
    13:00 -9°C° 0 mm 3 mps 618 mmHg 67%
    14:00 -8°C° 0 mm 3 mps 618 mmHg 65%
    15:00 -8°C° 0.1 mm 3 mps 618 mmHg 70%
    16:00 -8°C° 0.1 mm 2 mps 619 mmHg 74%
    17:00 -8°C° 0.1 mm 2 mps 619 mmHg 79%
    18:00 -9°C° 0.1 mm 2 mps 620 mmHg 83%
    19:00 -10°C° 0.1 mm 2 mps 621 mmHg 87%
    20:00 -10°C° 0.1 mm 1 mps 622 mmHg 91%
    21:00 -11°C° 0 mm 1 mps 622 mmHg 90%
    22:00 -11°C° 0 mm 1 mps 622 mmHg 89%
    23:00 -12°C° 0 mm 1 mps 623 mmHg 88%

    Tomorrow, 21 February, Wednesday

    Time Temperature Precipitation Wind Pressure Humidity
    00:00 -13°C° 0 mm 1 mps 623 mmHg 87%
    01:00 -13°C° 0 mm 1 mps 623 mmHg 86%
    02:00 -13°C° 0 mm 1 mps 623 mmHg 84%
    03:00 -13°C° 0 mm 1 mps 623 mmHg 83%
    04:00 -13°C° 0 mm 1 mps 623 mmHg 83%
    05:00 -14°C° 0 mm 1 mps 623 mmHg 82%
    06:00 -13°C° 0 mm 1 mps 623 mmHg 80%
    07:00 -12°C° 0 mm 1 mps 624 mmHg 77%
    08:00 -11°C° 0 mm 1 mps 624 mmHg 75%
    09:00 -9°C° 0 mm 1 mps 624 mmHg 72%
    10:00 -7°C° 0 mm 2 mps 623 mmHg 68%
    11:00 -5°C° 0 mm 2 mps 623 mmHg 65%
    12:00 -4°C° 0 mm 2 mps 622 mmHg 64%
    13:00 -3°C° 0 mm 2 mps 622 mmHg 63%
    14:00 -2°C° 0 mm 3 mps 621 mmHg 63%
    15:00 -4°C° 0.1 mm 3 mps 621 mmHg 68%
    16:00 -4°C° 0.1 mm 2 mps 621 mmHg 73%
    17:00 -4°C° 0.1 mm 2 mps 620 mmHg 78%
    18:00 -5°C° 0.1 mm 2 mps 621 mmHg 81%
    19:00 -6°C° 0.1 mm 2 mps 621 mmHg 85%
    20:00 -6°C° 0.1 mm 1 mps 621 mmHg 88%
    21:00 -7°C° 0.1 mm 1 mps 621 mmHg 89%
    22:00 -7°C° 0.1 mm 1 mps 621 mmHg 89%
    23:00 -8°C° 0.1 mm 1 mps 621 mmHg 89%

    Day after tomorrow, 22 February, Thursday

    Time Temperature Precipitation Wind Pressure Humidity
    00:00 -8°C° 0 mm 1 mps 621 mmHg 89%
    01:00 -8°C° 0 mm 1 mps 621 mmHg 90%
    02:00 -8°C° 0 mm 1 mps 620 mmHg 90%
    03:00 -8°C° 0 mm 1 mps 620 mmHg 90%
    04:00 -9°C° 0 mm 1 mps 620 mmHg 90%
    05:00 -9°C° 0 mm 1 mps 619 mmHg 91%
    06:00 -8°C° 0 mm 1 mps 620 mmHg 90%
    07:00 -8°C° 0 mm 1 mps 620 mmHg 88%
    08:00 -7°C° 0 mm 1 mps 620 mmHg 87%
    09:00 -6°C° 0.1 mm 1 mps 620 mmHg 85%
    10:00 -4°C° 0.1 mm 1 mps 620 mmHg 82%
    11:00 -4°C° 0.1 mm 2 mps 619 mmHg 80%
    12:00 -4°C° 0.2 mm 2 mps 619 mmHg 80%
    13:00 -3°C° 0.2 mm 2 mps 618 mmHg 81%
    14:00 -3°C° 0.2 mm 2 mps 617 mmHg 82%
    15:00 -3°C° 0.3 mm 2 mps 617 mmHg 84%
    16:00 -4°C° 0.3 mm 2 mps 617 mmHg 87%
    17:00 -4°C° 0.3 mm 2 mps 617 mmHg 89%
    18:00 -5°C° 0.4 mm 2 mps 618 mmHg 91%
    19:00 -3°C° 0.4 mm 1 mps 618 mmHg 93%
    20:00 -4°C° 0.4 mm 1 mps 619 mmHg 96%
    21:00 -4°C° 0.1 mm 1 mps 619 mmHg 95%
    22:00 -4°C° 0.1 mm 1 mps 619 mmHg 95%
    23:00 -4°C° 0.1 mm 1 mps 619 mmHg 94%

    23 February, Friday

    Time Temperature Precipitation Wind Pressure Humidity
    00:00 -6°C° 0 mm 1 mps 619 mmHg 94%
    01:00 -6°C° 0 mm 1 mps 619 mmHg 94%
    02:00 -6°C° 0 mm 1 mps 619 mmHg 93%
    03:00 -6°C° 0 mm 1 mps 619 mmHg 92%
    04:00 -6°C° 0 mm 1 mps 619 mmHg 91%
    05:00 -6°C° 0 mm 1 mps 619 mmHg 90%
    06:00 -6°C° 0 mm 1 mps 619 mmHg 88%
    07:00 -4°C° 0 mm 1 mps 619 mmHg 86%
    08:00 -4°C° 0 mm 1 mps 620 mmHg 83%
    09:00 -2°C° 0 mm 1 mps 620 mmHg 79%
    10:00 0°C° 0 mm 1 mps 619 mmHg 74%
    11:00 -1°C° 0 mm 2 mps 619 mmHg 69%
    12:00 +1°C° 0.1 mm 2 mps 619 mmHg 69%
    13:00 +1°C° 0.1 mm 2 mps 618 mmHg 69%
    14:00 +1°C° 0.1 mm 2 mps 617 mmHg 69%
    15:00 0°C° 0.3 mm 3 mps 617 mmHg 73%
    16:00 -1°C° 0.3 mm 3 mps 617 mmHg 77%
    17:00 -2°C° 0.3 mm 3 mps 616 mmHg 81%
    18:00 -4°C° 0.3 mm 3 mps 617 mmHg 86%
    19:00 -4°C° 0.3 mm 2 mps 617 mmHg 91%
    20:00 -5°C° 0.3 mm 2 mps 617 mmHg 95%
    21:00 -5°C° 0.2 mm 2 mps 617 mmHg 95%
    22:00 -5°C° 0.2 mm 2 mps 617 mmHg 95%
    23:00 -5°C° 0.2 mm 2 mps 617 mmHg 95%

    24 February, Saturday

    Time Temperature Precipitation Wind Pressure Humidity
    00:00 -5°C° 0.1 mm 2 mps 616 mmHg 94%
    01:00 -6°C° 0.1 mm 2 mps 616 mmHg 93%
    02:00 -6°C° 0.1 mm 2 mps 616 mmHg 92%
    03:00 -6°C° 0 mm 2 mps 616 mmHg 90%
    04:00 -7°C° 0 mm 3 mps 616 mmHg 88%
    05:00 -8°C° 0 mm 3 mps 617 mmHg 86%
    06:00 -8°C° 0 mm 3 mps 617 mmHg 82%
    07:00 -8°C° 0 mm 3 mps 618 mmHg 77%
    08:00 -8°C° 0 mm 3 mps 618 mmHg 73%
    09:00 -7°C° 0 mm 4 mps 618 mmHg 66%
    10:00 -4°C° 0 mm 4 mps 619 mmHg 59%
    11:00 -2°C° 0 mm 5 mps 619 mmHg 51%
    12:00 -2°C° 0 mm 5 mps 618 mmHg 54%
    13:00 -1°C° 0 mm 5 mps 618 mmHg 57%
    14:00 0°C° 0 mm 5 mps 618 mmHg 59%
    15:00 -1°C° 0 mm 4 mps 618 mmHg 60%
    16:00 -1°C° 0 mm 3 mps 618 mmHg 60%
    17:00 -1°C° 0 mm 3 mps 618 mmHg 60%
    18:00 -4°C° 0 mm 3 mps 618 mmHg 63%
    19:00 -5°C° 0 mm 3 mps 618 mmHg 65%
    20:00 -6°C° 0 mm 3 mps 618 mmHg 68%
    21:00 -7°C° 0 mm 3 mps 618 mmHg 67%
    22:00 -7°C° 0 mm 3 mps 618 mmHg 66%
    23:00 -7°C° 0 mm 3 mps 618 mmHg 65%

    25 February, Sunday

    Time Temperature Precipitation Wind Pressure Humidity
    00:00 -7°C° 0 mm 3 mps 618 mmHg 64%
    01:00 -7°C° 0 mm 3 mps 617 mmHg 63%
    02:00 -7°C° 0 mm 3 mps 617 mmHg 62%
    03:00 -7°C° 0 mm 3 mps 616 mmHg 61%
    04:00 -7°C° 0 mm 3 mps 616 mmHg 61%
    05:00 -8°C° 0 mm 3 mps 616 mmHg 61%
    06:00 -7°C° 0 mm 3 mps 615 mmHg 60%
    07:00 -6°C° 0 mm 3 mps 615 mmHg 59%
    08:00 -5°C° 0 mm 4 mps 615 mmHg 58%
    09:00 -3°C° 0 mm 4 mps 615 mmHg 58%
    10:00 -1°C° 0 mm 4 mps 615 mmHg 58%
    11:00 0°C° 0 mm 5 mps 615 mmHg 58%
    12:00 0°C° 0 mm 5 mps 615 mmHg 57%
    13:00 0°C° 0 mm 5 mps 614 mmHg 56%
    14:00 0°C° 0 mm 5 mps 614 mmHg 56%
    15:00 0°C° 0.1 mm 4 mps 615 mmHg 57%
    16:00 0°C° 0.1 mm 3 mps 615 mmHg 59%
    17:00 -1°C° 0.1 mm 3 mps 615 mmHg 60%
    18:00 -2°C° 0.1 mm 3 mps 616 mmHg 63%
    19:00 -4°C° 0.1 mm 3 mps 617 mmHg 67%
    20:00 -5°C° 0.1 mm 4 mps 618 mmHg 70%
    21:00 -7°C° 0 mm 4 mps 619 mmHg 68%
    22:00 -8°C° 0 mm 4 mps 619 mmHg 65%
    23:00 -9°C° 0 mm 4 mps 620 mmHg 63%
    Show more